Change the Weather History Date:

Saturday, June 21, 2014

  Actual Average Record
Temperature  
Mean Temperature 75 °F 74 °F  
Max Temperature 87 °F 84 °F 93 °F (2006)
Min Temperature 63 °F 64 °F 48 °F (2003)
Degree Days  
Heating Degree Days 0 0  
Month to date heating degree days 1 14  
Since 1 June heating degree days 1 14  
Since 1 July heating degree days 6152 5518  
Cooling Degree Days 10 9  
Month to date cooling degree days 163 139  
Year to date cooling degree days 308 226  
Since 1 June cooling degree days 163 139  
Growing Degree Days 26 (Base 50)    
Moisture  
Dew Point 66 °F    
Average Humidity 74    
Maximum Humidity 93    
Minimum Humidity 55    
Precipitation  
Precipitation 0.06 in 0.13 in 1.13 in (2001)
Month to date precipitation 5.16 3.20  
Year to date precipitation 14.82 17.65  
Sea Level Pressure  
Sea Level Pressure 29.94 in    
Wind  
Wind Speed 5 mph (SW)    
Max Wind Speed 29 mph    
Max Gust Speed 36 mph    
Visibility 10 miles    
Events Rain    
T = Trace of Precipitation, MM = Missing Value Source: NWS Daily Summary

Daily Weather History Graph

Daily Weather History Graph

Search for Another Location

Airport or City:

Trip Planner

Search our weather history database for the weather conditions in past years. The results will help you decide how hot, cold, wet, or windy it might be!

Date:

Astronomy

Jun. 21, 2014 Rise Set
Actual Time 5:27 AM CDT 8:27 PM CDT
Civil Twilight 4:54 AM CDT 9:00 PM CDT
Nautical Twilight 4:13 AM CDT 9:41 PM CDT
Astronomical Twilight 3:24 AM CDT 10:29 PM CDT
Moon 1:39 AM CDT (6/21) 3:06 PM CDT (6/21)
Length of Visible Light 16h 05m
Length of Day
14h 59m
Waning Crescent, 30% of the Moon is Illuminated
Jun 21
Waning Crescent
Jun 27
New
Jul 5
First Quarter
Jul 12
Full
Jul 18
Last Quarter

Hourly Weather History & Observations

Time (CDT) Temp. Heat Index Dew Point Humidity Pressure Visibility Wind Dir Wind Speed Gust Speed Precip Events Conditions
12:54 AM 69.1 °F - 66.0 °F 90% 29.95 in 10.0 mi Calm Calm - N/A   Clear
1:54 AM 66.9 °F - 64.0 °F 90% 29.94 in 10.0 mi Calm Calm - N/A   Clear
2:54 AM 66.9 °F - 64.0 °F 90% 29.94 in 10.0 mi Calm Calm - N/A   Clear
3:54 AM 66.0 °F - 63.0 °F 90% 29.95 in 10.0 mi Calm Calm - N/A   Clear
4:54 AM 64.9 °F - 63.0 °F 93% 29.97 in 10.0 mi Calm Calm - N/A   Clear
5:54 AM 64.0 °F - 61.0 °F 90% 29.97 in 10.0 mi Calm Calm - N/A   Clear
6:54 AM 69.1 °F - 66.0 °F 90% 29.97 in 10.0 mi Calm Calm - N/A   Clear
7:54 AM 75.0 °F - 68.0 °F 79% 29.99 in 10.0 mi Calm Calm - N/A   Clear
8:54 AM 77.0 °F - 66.9 °F 71% 29.99 in 10.0 mi ESE 4.6 mph - N/A   Scattered Clouds
9:54 AM 81.0 °F 83.8 °F 68.0 °F 65% 29.97 in 10.0 mi SSE 5.8 mph - N/A   Clear
10:54 AM 82.0 °F 84.5 °F 66.9 °F 60% 29.98 in 10.0 mi South 4.6 mph - N/A   Clear
11:54 AM 84.0 °F 87.0 °F 68.0 °F 58% 29.96 in 10.0 mi Variable 6.9 mph - N/A   Clear
12:54 PM 84.9 °F 88.2 °F 68.0 °F 57% 29.96 in 10.0 mi South 9.2 mph - N/A   Partly Cloudy
1:54 PM 86.0 °F 90.1 °F 69.1 °F 57% 29.94 in 10.0 mi SSW 10.4 mph - N/A   Scattered Clouds
2:54 PM 87.1 °F 91.3 °F 69.1 °F 55% 29.91 in 10.0 mi SSW 10.4 mph - N/A   Clear
3:54 PM 86.0 °F 89.4 °F 68.0 °F 55% 29.90 in 10.0 mi SSW 9.2 mph - N/A   Clear
4:54 PM 82.9 °F 86.5 °F 69.1 °F 63% 29.94 in 10.0 mi West 11.5 mph - N/A   Clear
5:14 PM 75.0 °F - 61.0 °F 62% 29.96 in 10.0 mi NW 20.7 mph 31.1 mph N/A   Mostly Cloudy
5:54 PM 73.0 °F - 61.0 °F 66% 29.92 in 10.0 mi NW 11.5 mph - N/A   Clear
6:54 PM 70.0 °F - 66.0 °F 87% 29.89 in 10.0 mi East 6.9 mph - 0.06 in Rain Light Rain
7:54 PM 72.0 °F - 66.0 °F 81% 29.89 in 10.0 mi SSW 6.9 mph - 0.00 in   Clear
8:54 PM 72.0 °F - 66.0 °F 81% 29.91 in 10.0 mi WNW 4.6 mph - N/A   Clear
9:54 PM 70.0 °F - 66.9 °F 90% 29.91 in 10.0 mi WSW 4.6 mph - N/A   Scattered Clouds
10:54 PM 71.1 °F - 66.0 °F 84% 29.92 in 10.0 mi Calm Calm - N/A   Partly Cloudy
11:54 PM 68.0 °F - 66.0 °F 93% 29.91 in 10.0 mi Calm Calm - N/A   Clear